Content
SEND FEEDBACK

Daily
Averages
Monthly
Summary
Canada

SASKATOON, SASKATCHEWAN


Home > North America > Canada > Saskatchewan
Elevation: 1653 feet     Latitude: 52 10N     Longitude: 106 41W

WEATHER
 
SELECT A DAY
Number of Records: 187,588;   Date Range: 1/1/95 - 9/17/14
 
SHARE

PRINT THIS DATA

[ ← Previous Day ]
WEATHER ALMANAC - MAY 14, 2013
[ Next Day → ]
[ °C ]   °F
Weather ElementAverageHighLow
Temperature59.9 °F71.6 °F (2:00 pm)51.8 °F (2:00 am)
Dewpoint40.9 °F50 °F (2:00 am) (7:00 pm)
Humidity59 %94 % (2:00 am)20 % (4:00 pm)
Barometer29.63 in29.82 in (11:00 pm)29.46 in (2:41 am)
Wind Speed14.2 mph20.7 mph (8:00 pm)
Wind Gust31.1 mph (4:00 pm)
Weather ElementAverage
Visibility15 mi
Wind DirectionW (271.1 °)

Weather ElementTotal
Precipitation---
Heating Degree Days3.3 (Base 65)
Growing Degree Days11.7 (Base 50)
Averaged from 28 records on May 14, 2013
WEATHER CONDITIONS BREAKOUT
WIND DIRECTION BREAKOUT
WEATHER BY HOUR - MAY 14, 2013
[ °C ]   °F
Local TimeTemperatureDewpointHumidityBarometerVisibilityWind DirectionWind SpeedGust SpeedPrecipitationEventsConditions
12:49 AM59.0 °F44.6 °F59 %29.50 in15.0 miNNE (20°)10.4 mphRainLight Rain Showers
1:00 AM59.0 °F44.6 °F59 %29.51 in15.0 miNNE (20°)6.9 mphRainLight Rain Showers
2:00 AM51.8 °F50.0 °F94 %29.49 in15.0 miNorth (10°)16.1 mphRainLight Rain Showers
2:23 AM53.6 °F48.2 °F82 %29.47 in15.0 miNorth (360°)15.0 mphOvercast
2:41 AM51.8 °F50.0 °F94 %29.46 in15.0 miNorth (360°)15.0 mphRainLight Rain Showers
2:51 AM51.8 °F0.0 °F29.46 in15.0 miNorth (360°)17.3 mphRain-ThunderstormLight Thunderstorms and Rain
3:00 AM53.6 °F48.2 °F82 %29.47 in15.0 miNorth (360°)16.1 mphRain-ThunderstormLight Thunderstorms and Rain
3:47 AM51.8 °F48.2 °F88 %29.49 in15.0 miNorth (350°)10.4 mphRainLight Rain Showers
4:00 AM51.8 °F48.2 °F88 %29.49 in15.0 miNorth (350°)6.9 mphRainLight Rain Showers
5:00 AM51.8 °F50.0 °F94 %29.55 in15.0 miWSW (240°)8.1 mph19.6 mphOvercast
6:00 AM51.8 °F50.0 °F94 %29.56 in15.0 miWSW (240°)8.1 mphOvercast
7:00 AM51.8 °F50.0 °F94 %29.58 in15.0 miWest (260°)8.1 mphMostly Cloudy
8:00 AM55.4 °F48.2 °F77 %29.61 in15.0 miWNW (290°)13.8 mph19.6 mphMostly Cloudy
9:00 AM59.0 °F48.2 °F67 %29.64 in15.0 miWNW (300°)17.3 mphOvercast
10:00 AM62.6 °F46.4 °F55 %29.67 in15.0 miWNW (300°)17.3 mph23.0 mphMostly Cloudy
11:00 AM66.2 °F44.6 °F46 %29.70 in15.0 miWNW (300°)13.8 mph19.6 mphScattered Clouds
12:00 PM69.8 °F39.2 °F33 %29.71 in15.0 miNW (310°)17.3 mph25.3 mphScattered Clouds
1:00 PM69.8 °F33.8 °F27 %29.71 in15.0 miWNW (300°)18.4 mph26.5 mphMostly Cloudy
2:00 PM71.6 °F32.0 °F23 %29.73 in15.0 miNW (320°)19.6 mph26.5 mphMostly Cloudy
3:00 PM71.6 °F32.0 °F23 %29.72 in15.0 miNW (310°)15.0 mph21.9 mphMostly Cloudy
4:00 PM71.6 °F28.4 °F20 %29.72 in15.0 miNW (310°)17.3 mph31.1 mphOvercast
5:00 PM69.8 °F28.4 °F21 %29.72 in15.0 miNW (320°)18.4 mphOvercast
6:00 PM69.8 °F32.0 °F25 %29.73 in15.0 miNW (310°)9.2 mphOvercast
7:00 PM68.0 °F32.0 °F26 %29.75 in15.0 miWest (270°)12.7 mph19.6 mphOvercast
8:00 PM60.8 °F41.0 °F48 %29.76 in15.0 miWSW (250°)20.7 mphOvercast
9:00 PM59.0 °F41.0 °F51 %29.78 in15.0 miWSW (250°)16.1 mphOvercast
10:00 PM57.2 °F42.8 °F59 %29.81 in15.0 miWest (260°)17.3 mphScattered Clouds
11:00 PM55.4 °F42.8 °F63 %29.82 in15.0 miWest (260°)15.0 mphScattered Clouds
Hourly data recorded from CYXE, located miles away from Saskatoon, Saskatchewan







STORIES FROM OUR PARTNERS